When you browse on this site, cookies collect data to enhance your experience and personalize the content and advertising you see.
Visit our Privacy Policy to learn more. By continuing to use the site, you agree to this use of cookies and data.
  • In Hungary
  • List of Countries
  • For 7 days
  • Water Temperature
  • Weather Map
  • News
  • Weather Widgets
  • user-avatar
    Login

    Hourly Weather Boavita

    Today, 11 December, Wednesday

    Time Temperature Precipitation Wind Pressure Humidity
    00:00 +14°C° 0 mm 1 mps 579 mmHg 92%
    01:00 +13°C° 0 mm 1 mps 578 mmHg 91%
    02:00 +13°C° 0 mm 1 mps 578 mmHg 90%
    03:00 +13°C° 0 mm 1 mps 578 mmHg 89%
    04:00 +12°C° 0 mm 1 mps 578 mmHg 89%
    05:00 +13°C° 0 mm 1 mps 578 mmHg 87%
    06:00 +14°C° 0 mm 1 mps 579 mmHg 85%
    07:00 +15°C° 0 mm 1 mps 580 mmHg 84%
    08:00 +18°C° 0 mm 1 mps 581 mmHg 75%
    09:00 +20°C° 0 mm 1 mps 582 mmHg 66%
    10:00 +22°C° 0 mm 1 mps 583 mmHg 58%
    11:00 +22°C° 0.1 mm 1 mps 583 mmHg 60%
    12:00 +21°C° 0.1 mm 2 mps 582 mmHg 62%
    13:00 +23°C° 0.1 mm 2 mps 581 mmHg 64%
    14:00 +21°C° 0.3 mm 2 mps 580 mmHg 70%
    15:00 +20°C° 0.3 mm 2 mps 580 mmHg 75%
    16:00 +19°C° 0.3 mm 2 mps 579 mmHg 80%
    17:00 +19°C° 0.3 mm 1 mps 579 mmHg 85%
    18:00 +16°C° 0.3 mm 1 mps 578 mmHg 91%
    19:00 +14°C° 0.3 mm 0 mps 578 mmHg 96%
    20:00 +13°C° 0.1 mm 0 mps 578 mmHg 95%
    21:00 +13°C° 0.1 mm 0 mps 578 mmHg 94%
    22:00 +12°C° 0.1 mm 0 mps 579 mmHg 94%
    23:00 +12°C° 0 mm 0 mps 578 mmHg 94%

    Tomorrow, 12 December, Thursday

    Time Temperature Precipitation Wind Pressure Humidity
    00:00 +12°C° 0 mm 0 mps 578 mmHg 94%
    01:00 +13°C° 0 mm 1 mps 577 mmHg 94%
    02:00 +13°C° 0 mm 1 mps 577 mmHg 94%
    03:00 +12°C° 0 mm 0 mps 577 mmHg 94%
    04:00 +12°C° 0 mm 0 mps 577 mmHg 94%
    05:00 +12°C° 0 mm 0 mps 578 mmHg 92%
    06:00 +13°C° 0 mm 0 mps 578 mmHg 91%
    07:00 +14°C° 0 mm 0 mps 579 mmHg 89%
    08:00 +18°C° 0 mm 1 mps 580 mmHg 83%
    09:00 +19°C° 0 mm 1 mps 581 mmHg 76%
    10:00 +21°C° 0 mm 1 mps 582 mmHg 70%
    11:00 +21°C° 0.3 mm 1 mps 581 mmHg 71%
    12:00 +20°C° 0.3 mm 2 mps 580 mmHg 73%
    13:00 +20°C° 0.3 mm 2 mps 580 mmHg 75%
    14:00 +20°C° 0.6 mm 2 mps 579 mmHg 79%
    15:00 +19°C° 0.6 mm 2 mps 578 mmHg 83%
    16:00 +18°C° 0.6 mm 2 mps 578 mmHg 87%
    17:00 +18°C° 0.3 mm 1 mps 578 mmHg 90%
    18:00 +16°C° 0.3 mm 1 mps 578 mmHg 93%
    19:00 +14°C° 0.3 mm 1 mps 577 mmHg 97%
    20:00 +13°C° 0.1 mm 0 mps 578 mmHg 96%
    21:00 +13°C° 0.1 mm 0 mps 578 mmHg 95%
    22:00 +12°C° 0.1 mm 0 mps 578 mmHg 95%
    23:00 +12°C° 0 mm 0 mps 578 mmHg 94%

    Day after tomorrow, 13 December, Friday

    Time Temperature Precipitation Wind Pressure Humidity
    00:00 +12°C° 0 mm 0 mps 578 mmHg 94%
    01:00 +12°C° 0 mm 0 mps 577 mmHg 93%
    02:00 +12°C° 0 mm 0 mps 577 mmHg 93%
    03:00 +12°C° 0 mm 0 mps 577 mmHg 93%
    04:00 +13°C° 0 mm 1 mps 577 mmHg 93%
    05:00 +13°C° 0 mm 0 mps 578 mmHg 92%
    06:00 +13°C° 0 mm 0 mps 578 mmHg 91%
    07:00 +14°C° 0 mm 0 mps 579 mmHg 90%
    08:00 +16°C° 0 mm 1 mps 580 mmHg 83%
    09:00 +19°C° 0 mm 1 mps 581 mmHg 75%
    10:00 +21°C° 0 mm 1 mps 582 mmHg 68%
    11:00 +21°C° 0.1 mm 1 mps 581 mmHg 67%
    12:00 +21°C° 0.1 mm 2 mps 581 mmHg 66%
    13:00 +21°C° 0.1 mm 2 mps 580 mmHg 66%
    14:00 +20°C° 0.3 mm 2 mps 579 mmHg 71%
    15:00 +19°C° 0.3 mm 2 mps 579 mmHg 77%
    16:00 +18°C° 0.3 mm 2 mps 578 mmHg 82%
    17:00 +18°C° 0.3 mm 1 mps 578 mmHg 87%
    18:00 +16°C° 0.3 mm 1 mps 578 mmHg 92%
    19:00 +13°C° 0.3 mm 0 mps 577 mmHg 97%
    20:00 +13°C° 0.1 mm 0 mps 578 mmHg 96%
    21:00 +13°C° 0.1 mm 0 mps 578 mmHg 95%
    22:00 +12°C° 0.1 mm 0 mps 578 mmHg 94%
    23:00 +12°C° 0 mm 0 mps 578 mmHg 94%

    14 December, Saturday

    Time Temperature Precipitation Wind Pressure Humidity
    00:00 +13°C° 0 mm 1 mps 578 mmHg 93%
    01:00 +13°C° 0 mm 1 mps 577 mmHg 93%
    02:00 +12°C° 0 mm 1 mps 577 mmHg 93%
    03:00 +11°C° 0 mm 0 mps 577 mmHg 93%
    04:00 +11°C° 0 mm 0 mps 577 mmHg 93%
    05:00 +12°C° 0 mm 0 mps 578 mmHg 91%
    06:00 +13°C° 0 mm 0 mps 578 mmHg 89%
    07:00 +13°C° 0 mm 0 mps 579 mmHg 87%
    08:00 +16°C° 0 mm 1 mps 580 mmHg 81%
    09:00 +19°C° 0 mm 1 mps 581 mmHg 75%
    10:00 +21°C° 0 mm 1 mps 582 mmHg 69%
    11:00 +21°C° 0.3 mm 1 mps 581 mmHg 71%
    12:00 +20°C° 0.3 mm 2 mps 581 mmHg 73%
    13:00 +20°C° 0.3 mm 2 mps 580 mmHg 75%
    14:00 +21°C° 0.5 mm 1 mps 580 mmHg 77%
    15:00 +20°C° 0.5 mm 1 mps 579 mmHg 79%
    16:00 +20°C° 0.5 mm 1 mps 579 mmHg 81%
    17:00 +19°C° 0.5 mm 1 mps 579 mmHg 86%
    18:00 +15°C° 0.5 mm 0 mps 578 mmHg 91%
    19:00 +14°C° 0.5 mm 0 mps 578 mmHg 96%
    20:00 +14°C° 0.3 mm 0 mps 579 mmHg 96%
    21:00 +13°C° 0.3 mm 0 mps 579 mmHg 95%
    22:00 +13°C° 0.3 mm 0 mps 579 mmHg 95%
    23:00 +13°C° 0.1 mm 0 mps 579 mmHg 95%

    15 December, Sunday

    Time Temperature Precipitation Wind Pressure Humidity
    00:00 +13°C° 0.1 mm 0 mps 579 mmHg 95%
    01:00 +13°C° 0.1 mm 0 mps 578 mmHg 95%
    02:00 +12°C° 0 mm 0 mps 578 mmHg 94%
    03:00 +12°C° 0 mm 0 mps 578 mmHg 94%
    04:00 +12°C° 0 mm 0 mps 577 mmHg 94%
    05:00 +12°C° 0 mm 0 mps 578 mmHg 92%
    06:00 +13°C° 0 mm 0 mps 579 mmHg 90%
    07:00 +14°C° 0 mm 0 mps 580 mmHg 89%
    08:00 +16°C° 0.1 mm 1 mps 581 mmHg 84%
    09:00 +19°C° 0.1 mm 1 mps 582 mmHg 80%
    10:00 +21°C° 0.1 mm 1 mps 582 mmHg 75%
    11:00 +21°C° 0.5 mm 1 mps 582 mmHg 76%
    12:00 +21°C° 0.5 mm 1 mps 581 mmHg 77%
    13:00 +20°C° 0.5 mm 2 mps 581 mmHg 79%
    14:00 +20°C° 1.3 mm 1 mps 580 mmHg 82%
    15:00 +20°C° 1.3 mm 1 mps 580 mmHg 86%
    16:00 +19°C° 1.3 mm 1 mps 579 mmHg 89%
    17:00 +18°C° 1 mm 1 mps 579 mmHg 91%
    18:00 +16°C° 1 mm 1 mps 579 mmHg 93%
    19:00 +14°C° 1 mm 0 mps 579 mmHg 94%
    20:00 +14°C° 0.1 mm 0 mps 579 mmHg 94%
    21:00 +13°C° 0.1 mm 0 mps 579 mmHg 93%
    22:00 +13°C° 0.1 mm 0 mps 579 mmHg 93%
    23:00 +13°C° 0 mm 0 mps 579 mmHg 93%

    16 December, Monday

    Time Temperature Precipitation Wind Pressure Humidity
    00:00 +12°C° 0 mm 0 mps 579 mmHg 93%
    01:00 +12°C° 0 mm 0 mps 578 mmHg 93%
    02:00 +12°C° 0 mm 0 mps 578 mmHg 92%
    03:00 +13°C° 0 mm 1 mps 578 mmHg 92%
    04:00 +13°C° 0 mm 1 mps 578 mmHg 92%
    05:00 +13°C° 0 mm 1 mps 578 mmHg 90%
    06:00 +14°C° 0 mm 1 mps 579 mmHg 88%
    07:00 +15°C° 0 mm 1 mps 580 mmHg 87%
    08:00 +18°C° 0 mm 1 mps 581 mmHg 79%
    09:00 +20°C° 0 mm 1 mps 582 mmHg 72%
    10:00 +22°C° 0 mm 1 mps 583 mmHg 64%
    11:00 +22°C° 0.4 mm 1 mps 582 mmHg 66%
    12:00 +22°C° 0.4 mm 1 mps 582 mmHg 68%
    13:00 +22°C° 0.4 mm 1 mps 581 mmHg 69%
    14:00 +21°C° 0.8 mm 1 mps 580 mmHg 75%
    15:00 +20°C° 0.8 mm 1 mps 579 mmHg 81%
    16:00 +20°C° 0.8 mm 1 mps 578 mmHg 87%
    17:00 +18°C° 0.4 mm 1 mps 578 mmHg 89%
    18:00 +16°C° 0.4 mm 1 mps 578 mmHg 92%
    19:00 +14°C° 0.4 mm 0 mps 578 mmHg 94%
    20:00 +14°C° 0.1 mm 1 mps 578 mmHg 93%
    21:00 +14°C° 0.1 mm 1 mps 578 mmHg 91%
    22:00 +13°C° 0.1 mm 1 mps 579 mmHg 90%
    23:00 +13°C° 0 mm 1 mps 578 mmHg 89%
    Show more